Regional Weather Roundup
Issued by NWS Pendleton, OR

Home | Current Version | Previous Version | Text Only | Print | Product List | Glossary On
Versions: 1 2 3 4 5 6 7 8 9 10 11 12 13 14 15 16 17 18 19 20 21 22 23 24 25 26 27 28 29 30 31 32 33 34 35 36 37 38 39 40 41 42 43 44 45 46 47 48 49 50
000
ASUS46 KPDT 220610
RWRPDT
PENDLETON REGIONAL WEATHER ROUNDUP
NATIONAL WEATHER SERVICE PENDLETON OREGON
1100 PM PDT THU AUG 21 2014

NOTE: FAIR INDICATES FEW OR NO CLOUDS BELOW 12,000 FEET WITH NO
SIGNIFICANT WEATHER AND/OR OBSTRUCTIONS TO VISIBILITY.

# INDICATES UNOFFICIAL STATION AND DATA

WAZ520-220710-
EAST SLOPES OF WASHINGTON CASCADES

CITY            SKY/WX      TMP DP  RH  WIND    PRES   REMARKS
#CLE ELUM HS    N/A         58  43  57  SW7     29.92S
#CLE ELUM 2NW   N/A         57  42  57  SW3     N/A
#CLE ELUM LAKE  N/A         55  38  53  CALM    29.88F
#CLIFFDEL 2NW   N/A         55  45  69  NW1     N/A
#EASTON DOT     N/A         55  35  47  N5      N/A
#GLENWOOD       N/A         49  44  83  CALM    29.89R
#NELSON         N/A         58  45  62  CALM    29.91S
#NELSON 3SW     N/A         57  40  53  CALM    30.10S
#NILE           N/A         59  46  62  S1      29.18S
#PEOH POINT     N/A         50  41  71  SW8     N/A
#RONALD 2NW     N/A         57  38  49  NE1     29.86S
#SOUTH BLEWITT  N/A         54  40  59  CALM    N/A
#TEANAWAY 4NE   N/A         57  37  47  CALM    N/A
#TROUT LAKE 1NE N/A         60  42  51  W7      29.89S
$$

WAZ521-220710-
SIMCOE HIGHLANDS

CITY            SKY/WX      TMP DP  RH  WIND    PRES   REMARKS
#BICKLETON HS   N/A         62  29  28  N9      29.97S
#SATUS PASS DOT N/A         55  34  45  CALM    N/A
#CENTERVILLE 4W N/A         62  44  52  W12     29.68S
#CENTERVILLE 1SWN/A         61  45  56  W9      29.83S
#GOLDENDALE     N/A         63  42  46  NW7     N/A
#GOLDENDALE 1NE N/A         61  36  39  CALM    N/A
#GOODNOE HILLS  N/A         67  46  47  W15     29.83R
#LYLE 6NE       N/A         64  48  56  SW5     29.85S
$$

WAZ026-220710-
KITTITAS VALLEY

CITY            SKY/WX      TMP DP  RH  WIND    PRES   REMARKS
ELLENSBURG AP   PTCLDY      64  41  43  NW17G26 29.93R
6HR MIN TEMP:   64; 6HR MAX TEMP:   81;

#ELLENSBURG CWU N/A         62  42  48  NW15    29.83R
#ELLENSBURG 3NE N/A         61  42  50  W7      29.93R
#ELLENSBURG     N/A         65  45  48  N5      N/A
#ELLENSBURG 1E  N/A         62  39  43  NW1     N/A
#KITTITAS 3S    N/A         62  44  52  NW8     29.83S
#THORP 6N       N/A         58  42  55  N13     29.90R
$$

WAZ027-220710-
YAKIMA VALLEY

CITY            SKY/WX      TMP DP  RH  WIND    PRES   REMARKS
SUNNYSIDE AP    CLEAR       61  45  56  CALM    29.85R
YAKIMA AIRPORT  MOCLEAR     68  45  44  NW12    29.89R
6HR MIN TEMP:   68; 6HR MAX TEMP:   84;

YAKIMA-VAGABOND MOCLDY      69  33  26  N16     29.91R
#COWICHE 1N     N/A         63  45  52  W12     30.07R
#DONALD 2NE     N/A         67  41  39  W6      30.19S
#GRANDVIEW      N/A         66  37  34  W1      29.84R
#MABTON         N/A         66  42  42  SW3     29.85R
#MOXEE 2E       N/A         67  24  19  NW7     29.85R
#NACHES 2SW     N/A         63  47  56  W12G25  29.89S
#TERRACE HTS    N/A         69  36  30  N7      29.79S
#TOPPENISH      N/A         68  48  49  N3      29.76R
#WAPATO 4NE     N/A         67  41  39  W6      30.19S
#W YAKIMA       N/A         67  45  45  N5      29.84R
#WHITE SWAN 5E  N/A         65  40  40  CALM    29.84R
#WILEY CITY 3W  N/A         70  44  39  CALM    29.88R
$$

WAZ028-220710-
LOWER COLUMBIA BASIN...WASHINGTON

CITY            SKY/WX      TMP DP  RH  WIND    PRES   REMARKS
HANFORD         PTCLDY      73  30  20  NW21G33 29.84
PASCO           CLEAR       72  44  37  S9      29.82R
6HR MIN TEMP:   71; 6HR MAX TEMP:   85;

PROSSER AWOS    N/A         63  45  52  SW10    29.87R
RICHLAND AWOS   CLEAR       68  39  35  N7      29.83R
#BASIN CITY 5SW N/A         61  51  70  CALM    29.83R
#BENTON CITY    N/A         66  44  45  CALM    29.72R
#CONNELL 5N     N/A         62  34  35  NE1     29.80R
#CONNELL 5NW    N/A         61  38  42  CALM    29.78R
#ELTOPIA        N/A         62  45  54  CALM    29.78R
#ELTOPIA 6NW    N/A         66  43  43  CALM    28.81R
#KENNEWICK 3S   N/A         69  45  42  SW1     29.81R
#PATERSON       N/A         68  45  44  N1      29.80R
#PROSSER DOT    N/A         64  48  56  S6      N/A
#PROSSER        N/A         69  34  27  SW7     29.81R
#SAGEMOOR 2W    N/A         64  47  54  CALM    29.66R
#TOUCHET 2S     N/A         73  43  34  S13     29.78S
#WEST PASCO     N/A         69  46  44  CALM    29.78S
$$

WAZ029-220710-
FOOTHILLS OF THE BLUES...WASHINGTON

CITY            SKY/WX      TMP DP  RH  WIND    PRES   REMARKS
WALLA WALLA AP  CLOUDY      71  27  19  S9      29.88R
6HR MIN TEMP:   70; 6HR MAX TEMP:   83;

#COLLEGE PLACE  N/A         72  31  22  S3      29.84S
#DAYTON SCHOOL  N/A         66  40  38  N1      29.87S
#DELANEY DOT    N/A         65  38  37  CALM    N/A
#LOWDEN 2SE     N/A         68  40  36  N1      29.80S
#PLEASANT VIEW 1N/A         65  26  23  S5      29.85S
#PRESCOTT       N/A         60  44  55  CALM    29.81R
#SUDBURY        N/A         62  N/A N/A CALM    N/A
#WHITMAN COLLEGEN/A         71  32  24  CALM    29.87R
#WAITSBURG 8N   N/A         68  21  17  S6      29.79F
#WALLA WALLA 5E N/A         98  49  19  E6      N/A    HX 95
$$

WAZ030-220710-
BLUE MOUNTAINS...WASHINGTON

CITY            SKY/WX      TMP DP  RH  WIND    PRES   REMARKS
$$

ORZ009-041-WAZ024-220710-
COLUMBIA RIVER GORGE

CITY            SKY/WX      TMP DP  RH  WIND    PRES   REMARKS
HOOD RIVER AP   CLEAR       66  46  48  CALM    29.93S
THE DALLES AP   CLEAR       70  46  42  W13     29.89S
6HR MIN TEMP:   70; 6HR MAX TEMP:   83;

#ARLINGTON AIRPON/A         68  47  47  W15     N/A
#ARLINGTON HS   N/A         71  48  44  NW6     29.74R
#MARYHILL       N/A         68  45  44  CALM    N/A
#MARYHILL 2W    N/A         70  45  41  W6      N/A
#MOSIER 1S      N/A         67  38  34  W8      29.97S
#MURDOCK        N/A         72  50  46  NW7     29.90S
#RUFUS DOT      N/A         72  48  43  W22     N/A

$$

ORZ510-220710-
NORTH CENTRAL OREGON

CITY            SKY/WX      TMP DP  RH  WIND    PRES   REMARKS
#CHENOWITH 1W   N/A         63  45  52  W28     N/A
#COW CYN RST AREN/A         60  43  53  NW6     N/A
#DUFUR 9E       N/A         61  44  53  W9      29.93S
#GRASS VALLEY   N/A         62  44  52  CALM    N/A
#GRASS VALLEY 1SN/A         62  45  54  NW7     29.89F
#KENT DOT       N/A         56  37  49  W6      N/A
#MAUPIN SCHOOL  N/A         68  43  40  SW1     28.79S
#MORO SCHOOL    N/A         65  52  63  W15     29.94R
#SHANIKO 5WSW   N/A         59  40  49  W12     N/A
#SHANIKO 4NW    N/A         57  41  55  W9      30.00S
#TYGH VALLEY 2NEN/A         63  45  52  N2      29.88S
#WAPANITIA AIRPON/A         62  41  46  W3      29.89S
#WASCO DOT      N/A         65  47  52  W6      N/A
#WASCO 5NE      N/A         64  46  52  SW9     29.85F
$$

ORZ511-220710-
CENTRAL OREGON

CITY            SKY/WX      TMP DP  RH  WIND    PRES   REMARKS
BEND AIRPORT    CLEAR       57  39  51  S5      30.01S
MADRAS AIRPORT  CLEAR       61  41  48  N10     29.99S
REDMOND AIRPORT CLEAR       61  40  46  N5      29.98S
6HR MIN TEMP:   57; 6HR MAX TEMP:   79;

#BEND 6E        N/A         57  39  51  CALM    29.81S
#BEND-AWBREY    N/A         60  42  51  SW5     29.88S
#BEND-KIM LN    N/A         57  43  59  CALM    29.97S
#CROOKED RVR RANN/A         64  45  50  E1      29.88S
#CULVER         N/A         60  46  60  E1      29.94S
#LAKE BILLY CHINN/A         62  19  19  SE5     30.02R
#POWELL BUTTE 3EN/A         60  44  55  W3      N/A
#POWELL BUTTE   N/A         60  42  51  W2      29.64S
#PRINEVILLE 3N  N/A         60  46  60  CALM    29.85S


ORZ509-220710-
EAST SLOPES OF OREGON CASCADES

CITY            SKY/WX      TMP DP  RH  WIND    PRES   REMARKS
#BLUE BOX PASS  N/A         52  N/A N/A CALM    N/A
#BLACK BUTTE RNCN/A         59  41  51  CALM    29.90S
#CAMP SHERMAN   N/A         57  38  49  CALM    29.88F
#LA PINE DOT    N/A         55  33  43  W1      N/A
#LA PINE 4NW    N/A         50  39  66  CALM    29.96S
#LAVA BUTTE DOT N/A         56  34  43  SE2     N/A
#SISTERS AIRPOR N/A         62  47  58  N6      29.98R
#SISTERS ODOT   N/A         62  N/A N/A S3      N/A
#SISTERS 3N     N/A         60  37  42  CALM    N/A
#SUNRIVER       N/A         58  37  45  SW3     29.80S
#SUTTLE LK DOT  N/A         50  37  61  W23G31  N/A
#TUMALO 3W      N/A         59  41  51  W1      29.77S
#WANOGA BUTTE D N/A         51  35  54  NW14    N/A

$$

ORZ044-220710-
LOWER COLUMBIA BASIN...OREGON

CITY            SKY/WX      TMP DP  RH  WIND    PRES   REMARKS
HERMISTON       CLEAR       69  44  40  SW10    29.85R
6HR MIN TEMP:   68; 6HR MAX TEMP:   85;

#BOARDMAN SCHOOLN/A         69  47  45  W2      29.84R
#BOARDMAN 3W    N/A         67  46  47  SW10    29.56R
#BOARDMAN 8SW   N/A         65  48  54  SW6     29.83R
#ECHO 8SW       N/A         69  44  40  W9      29.83R
#IONE SCHOOL    N/A         67  44  43  SW5     29.89R
#IRRIGON 4NW    N/A         71  51  49  SW13    N/A
#UMATILLA SCHOOLN/A         68  54  61  N2      29.90R
$$

ORZ507-220710-
NORTHERN FOOTHILLS OF THE BLUES

CITY            SKY/WX      TMP DP  RH  WIND    PRES   REMARKS
PENDLETON AIRPT PTCLDY      70  41  35  SW12    29.90R
6HR MIN TEMP:   68; 6HR MAX TEMP:   83;

#ADAMS 3WNW     N/A         66  41  40  SW7     29.85R
#ATHENA         N/A         67  35  30  CALM    29.87R
#HELIX SCHOOL   N/A         67  41  39  SW10    29.84R
#HELIX 3N       N/A         65  39  38  SW10    29.88R
#HELIX 6SW      N/A         65  43  45  S10     29.90R
#HOLDMAN 5SE    N/A         67  44  43  S6      29.90R
#HOLDMAN 6E     N/A         66  42  42  N13     29.66S
#M-F GROVE ELEM N/A         72  32  23  S3      29.86S
#M-FREEWATER 5SEN/A         63  38  39  CALM    29.89R
#PDT AQUATIC CTRN/A         71  40  32  S1      29.90R
#PENDLETON DNTN N/A         71  36  28  S3      29.86R
#PDT SUNRIDGE   N/A         65  41  41  S3      29.90R
#PENDLETON 7NW  N/A         70  48  46  SW9     N/A
#PILOT ROCK     N/A         66  38  36  S5      29.94R
#TUTUILLA       N/A         63  42  46  S3      29.80R
#UMAPINE 2E     N/A         71  42  35  SW3     29.82S
#WESTON SCHOOL  N/A         66  28  24  W5      29.88R

$$

ORZ508-220710-
SOUTHERN FOOTHILLS OF THE BLUES

CITY            SKY/WX      TMP DP  RH  WIND    PRES   REMARKS
LEXINGTON       CLEAR       66  43  43  S7      29.94R
#AJAX           N/A         63  39  41  W9      29.89S
#CONDON SCHOOL  N/A         60  43  53  W9      29.93S
#CONDON 5W      N/A         57  41  55  W12     29.95R
#FOSSIL SCHOOL  N/A         60  43  53  CALM    29.94S
#HEPPNER 4NE    N/A         59  41  51  S2      29.86R
#LEXINGTON 2SE  N/A         66  43  43  SW2     29.89R
#MIKKALO        N/A         66  42  42  W15     29.92F
#OLEX 4N        N/A         66  45  47  W15G24  29.87S
#RUGGS 5NE      N/A         57  38  49  SW2     30.11F
#RUGGS 2SW      N/A         62  43  50  W8      29.92R

$$

ORZ502-503-220710-
BLUE MOUNTAINS

CITY            SKY/WX      TMP DP  RH  WIND    PRES   REMARKS
MEACHAM         MOCLDY      49  36  61  CALM    30.00S
6HR MIN TEMP:   49; 6HR MAX TEMP:   73;

#BATTLE MTN DOT N/A         56  44  64  CALM    N/A
#HEPPNER 15SE   N/A         52  39  61  CALM    29.92S
#LADD CYN SMT   N/A         59  24  26  W2      N/A
#LADD CREEK ODOTN/A         64  34  33  NE8     N/A
#LONG CREEK HS  N/A         54  33  45  CALM    N/A
#N POWDER DOT   N/A         57  37  47  NW14    N/A
#PIKES PEAK     N/A         65  30  27  SW18    27.99S
#TOLLGATE       N/A         53  27  36  CALM    29.96S
#TOLLGATE 9W    N/A         55  30  38  E1      N/A
#TROY SCHOOL    N/A         66  51  58  W1      29.68R
#UKIAH          N/A         50  34  54  CALM    29.94R
#WESTON 4E      N/A         62  31  31  S5      29.80S
$$

ORZ505-220710-
JOHN DAY BASIN

CITY            SKY/WX      TMP DP  RH  WIND    PRES   REMARKS
JOHN DAY        PTCLDY      64  23  21  W3      29.98S
#JOHN DAY KJDY  N/A         60  28  29  CALM    30.24F
#MONUMENT HS    N/A         68  33  27  E3      29.94R
#MT. VERNON 5SE N/A         58  29  33  CALM    29.95R
#WINLOCK        N/A         60  41  49  N3      30.05R
$$

ORZ506-220710-
OCHOCO AND JOHN DAY HIGHLANDS

CITY            SKY/WX      TMP DP  RH  WIND    PRES   REMARKS
#BUCK CREEK DOT N/A         59  37  44  NW6     N/A
#HORSE RIDGE DO N/A         50  35  56  SE2     N/A
#KEYES SMT DOT  N/A         59  42  53  NW8     N/A
#PAULINA SCHOOL N/A         N/A N/A N/A CALM    29.99S
#PINE MTN OBS   N/A         50  38  63  NW6     N/A
#PRAIRIE CITY   N/A         49  36  61  E1      30.00R
#SENECA 9NW     N/A         50  25  37  CALM    29.86S
$$

ORZ049-220710-
GRANDE RONDE VALLEY

CITY            SKY/WX      TMP DP  RH  WIND    PRES   REMARKS
LA GRANDE       MOCLDY      64  25  23  W8      29.94S
#COVE           N/A         56  44  64  CALM    29.87R
#COVE SCHOOL    N/A         58  42  55  CALM    29.93S
#COVE 6NW       N/A         57  37  47  CALM    29.91R
#ELGIN 3N       N/A         56  34  43  CALM    29.67S
#ELGIN 1E       N/A         59  35  40  CALM    N/A
#IMBLER SCHOOL  N/A         63  29  28  NE2     29.91R
#ISLAND CITY 4N N/A         60  39  46  CALM    29.80S
#LADD CYN DOT   N/A         65  34  31  N3      N/A
#LA GRANDE ELEM N/A         68  27  21  W9      29.93R
#UNION 1S       N/A         61  35  38  CALM    29.78R
$$

ORZ050-220710-
WALLOWA COUNTY

CITY            SKY/WX      TMP DP  RH  WIND    PRES   REMARKS
#ENTERPRISE AP  N/A         57  41  55  CALM    29.93R
#ENTERPRISE HS  N/A         53  43  69  CALM    29.98S
#IMNAHA SCHOOL  N/A         73  36  26  CALM    29.85R
#IMNAHA 10S     N/A         68  40  36  SW5     29.92R
#JOSEPH 3N      N/A         50  41  71  CALM    30.01S
#JOSEPH 3W      N/A         55  39  55  SW1     29.86S
#MT HOWARD 8000 N/A         48  37  65  CALM    30.17F
#PROMISE 1S     N/A         60  43  53  CALM    29.94F
#SHEEP RDG 7000 N/A         51  35  54  CALM    29.86F
#WALLOWA SCHOOL N/A         57  46  67  CALM    30.76S



$$



USA.gov is the U.S. government's official web portal to all federal, state and local government web resources and services.